Disclaimer

Please do not use the information listed here in-flight or in-navigation, as they are not provided to us by the airports but are provided by volunteers, so they might be outdated.

Search


Regions


Airport information page

No radio frequency information is available.

Airport informations:
Latitude: 52° 03' 38.00" N
Longitude: 005° 52' 23.00" E
Elevation: 158 feet - 48 meters
Operating hours: N/A
Operating agency: Military
Timezone: UTC+1(+2DT)
Fuel: N/A

Runway information:
02/20 - 9678 x 164 feet< - >2950 x 50 meters

Recent METARs:
EHDL 152255Z AUTO 23011KT 180V260 9999 BKN014 OVC032 07/05 Q1013 GRN
EHDL 152325Z AUTO 22012KT 160V260 9999 BKN014 OVC017 07/05 Q1013 GRN
EHDL 152355Z AUTO 23011KT 180V300 9999 BKN015 BKN028 OVC033 07/05 Q1013 WHT

Airport on the map: